Change the Weather History Date:

Wednesday, December 19, 2012

  Actual Average Record
Temperature  
Mean Temperature 36 °F -  
Max Temperature 41 °F 43 °F 53 °F (2002)
Min Temperature 32 °F 30 °F 1 °F (2000)
Degree Days  
Heating Degree Days 28    
Moisture  
Dew Point 34 °F    
Average Humidity 92    
Maximum Humidity 100    
Minimum Humidity 82    
Precipitation  
Precipitation 0.32 in - - ()
Sea Level Pressure  
Sea Level Pressure 29.89 in    
Wind  
Wind Speed 12 mph (East)    
Max Wind Speed 22 mph    
Max Gust Speed 30 mph    
Visibility 4 miles    
Events Rain    
Averages and records for this station are not official NWS values.
T = Trace of Precipitation, MM = Missing Value Source: NWS Daily Summary

Daily Weather History Graph

Daily Weather History Graph

Search for Another Location

Airport or City:

Trip Planner

Search our weather history database for the weather conditions in past years. The results will help you decide how hot, cold, wet, or windy it might be!

Date:

Astronomy

Dec. 19, 2012 Rise Set
Actual Time 7:14 AM CST 4:31 PM CST
Civil Twilight 6:43 AM CST 5:02 PM CST
Nautical Twilight 6:09 AM CST 5:36 PM CST
Astronomical Twilight 5:36 AM CST 6:09 PM CST
Moon 11:22 AM CST (12/19) No Moon Set
Length of Visible Light 10h 18m
Length of Day
9h 16m
Waxing Crescent, 45% of the Moon is Illuminated
Dec 19
Waxing Crescent
Dec 19
First Quarter
Dec 28
Full
Jan 4
Last Quarter
Jan 11
New

Hourly Weather History & Observations

Time (CST) Temp. Windchill Dew Point Humidity Pressure Visibility Wind Dir Wind Speed Gust Speed Precip Events Conditions
12:56 AM 34.9 °F 26.2 °F 30.0 °F 82% 29.95 in 9.0 mi NW 12.7 mph - N/A   Overcast
1:56 AM 34.9 °F 26.2 °F 30.0 °F 82% 29.95 in 8.0 mi NNW 12.7 mph - N/A   Overcast
2:56 AM 34.0 °F 26.6 °F 30.0 °F 85% 29.97 in 9.0 mi NNW 9.2 mph - N/A   Overcast
3:56 AM 34.0 °F 28.8 °F 30.0 °F 85% 29.99 in 8.0 mi North 5.8 mph - N/A   Overcast
4:29 AM 33.8 °F 29.6 °F 30.2 °F 87% 29.96 in 7.0 mi NNW 4.6 mph - N/A   Scattered Clouds
4:56 AM 32.9 °F 28.5 °F 30.0 °F 89% 30.01 in 7.0 mi North 4.6 mph - N/A   Clear
5:56 AM 32.0 °F - 30.0 °F 92% 30.04 in 6.0 mi Calm Calm - N/A   Scattered Clouds
6:04 AM 32.0 °F 28.7 °F 30.2 °F 93% 30.01 in 6.0 mi NE 3.5 mph - N/A   Mostly Cloudy
6:56 AM 32.0 °F 25.6 °F 30.0 °F 92% 30.05 in 5.0 mi NE 6.9 mph - N/A   Overcast
7:49 AM 32.0 °F 24.8 °F 30.2 °F 93% 30.01 in 5.0 mi NE 8.1 mph - N/A   Overcast
7:56 AM 32.0 °F 24.8 °F 30.0 °F 92% 30.05 in 5.0 mi NE 8.1 mph - N/A   Overcast
8:56 AM 32.9 °F 25.3 °F 30.0 °F 89% 30.07 in 5.0 mi ENE 9.2 mph - N/A   Overcast
9:56 AM 32.9 °F 26.7 °F 30.0 °F 89% 30.09 in 5.0 mi East 6.9 mph - N/A   Overcast
10:56 AM 34.9 °F 28.3 °F 31.1 °F 86% 30.09 in 5.0 mi East 8.1 mph - N/A   Overcast
11:56 AM 36.0 °F 28.5 °F 32.0 °F 86% 30.06 in 6.0 mi ESE 10.4 mph - N/A   Mostly Cloudy
12:56 PM 36.9 °F 30.1 °F 32.9 °F 86% 30.04 in 7.0 mi ESE 9.2 mph - N/A   Mostly Cloudy
1:56 PM 36.9 °F 30.7 °F 32.9 °F 86% 30.03 in 6.0 mi ESE 8.1 mph - N/A   Mostly Cloudy
2:49 PM 37.4 °F 28.9 °F 33.8 °F 87% 29.98 in 4.0 mi ESE 13.8 mph - 0.00 in   Mostly Cloudy
2:56 PM 36.9 °F 28.7 °F 34.0 °F 89% 30.01 in 2.5 mi ESE 12.7 mph - 0.00 in Rain Light Rain
3:34 PM 37.4 °F 28.9 °F 35.6 °F 93% 29.95 in 3.0 mi East 13.8 mph - 0.00 in   Mostly Cloudy
3:56 PM 36.9 °F 28.7 °F 34.9 °F 93% 29.99 in 3.0 mi East 12.7 mph - 0.00 in   Scattered Clouds
4:56 PM 36.9 °F 29.6 °F 34.9 °F 93% 29.97 in 4.0 mi East 10.4 mph - N/A   Overcast
5:56 PM 36.9 °F 28.7 °F 34.9 °F 93% 29.97 in 6.0 mi East 12.7 mph - N/A   Mostly Cloudy
6:56 PM 37.9 °F 28.2 °F 34.9 °F 89% 29.94 in 5.0 mi ESE 18.4 mph - N/A   Mostly Cloudy
7:32 PM 37.4 °F 28.5 °F 35.6 °F 93% 29.90 in 4.0 mi ESE 15.0 mph - 0.00 in Rain Light Rain
7:56 PM 37.9 °F 27.9 °F 36.0 °F 93% 29.91 in 5.0 mi ESE 19.6 mph - 0.00 in   Overcast
8:35 PM 37.4 °F 26.9 °F 37.4 °F 100% 29.83 in 5.0 mi ESE 20.7 mph - 0.03 in Rain Light Rain
8:56 PM 37.9 °F 27.6 °F 36.9 °F 96% 29.84 in 2.0 mi East 20.7 mph 27.6 mph 0.05 in Rain Light Rain
9:24 PM 37.4 °F 27.2 °F 37.4 °F 100% 29.76 in 1.8 mi East 19.6 mph 27.6 mph 0.05 in Rain Rain
9:40 PM 39.2 °F 29.6 °F 37.4 °F 93% 29.76 in 3.0 mi ESE 19.6 mph 28.8 mph 0.06 in Rain Light Rain
9:56 PM 38.8 °F 28.5 °F 36.9 °F 93% 29.78 in 3.0 mi ESE 21.9 mph 28.8 mph 0.07 in Rain Light Rain
10:19 PM 39.2 °F 29.6 °F 37.4 °F 93% 29.73 in 1.8 mi ESE 19.6 mph - 0.05 in Rain Rain
10:24 PM 39.2 °F 29.3 °F 37.4 °F 93% 29.72 in 1.2 mi ESE 20.7 mph 26.5 mph 0.08 in Rain Light Rain
10:33 PM 39.2 °F 29.8 °F 37.4 °F 93% 29.72 in 1.8 mi ESE 18.4 mph 24.2 mph 0.09 in Rain Light Rain
10:41 PM 39.2 °F 29.6 °F 37.4 °F 93% 29.71 in 2.5 mi ESE 19.6 mph 24.2 mph 0.10 in Rain Light Rain
10:56 PM 39.9 °F 30.5 °F 37.9 °F 93% 29.73 in 2.0 mi ESE 19.6 mph 28.8 mph 0.10 in Rain Light Rain
11:04 PM 39.2 °F 29.6 °F 37.4 °F 93% 29.70 in 3.0 mi ESE 19.6 mph - 0.00 in Rain Light Rain
11:09 PM 39.2 °F 29.3 °F 37.4 °F 93% 29.69 in 2.5 mi ESE 20.7 mph - 0.02 in Rain Rain
11:18 PM 39.2 °F 29.8 °F 39.2 °F 100% 29.68 in 1.8 mi ESE 18.4 mph - 0.04 in Rain Light Rain
11:20 PM 39.2 °F 29.6 °F 39.2 °F 100% 29.68 in 2.0 mi ESE 19.6 mph - 0.04 in Rain Light Rain
11:34 PM 39.2 °F 29.6 °F 39.2 °F 100% 29.66 in 1.8 mi ESE 19.6 mph - 0.08 in Rain Rain
11:45 PM 41.0 °F 32.5 °F 39.2 °F 93% 29.65 in 3.0 mi ESE 17.3 mph - 0.09 in Rain Light Rain
11:56 PM 41.9 °F 34.0 °F 39.9 °F 93% 29.67 in 4.0 mi ESE 16.1 mph 29.9 mph 0.10 in Rain Light Rain